User: anonymous   Login
Location: Caltech
(34.1382°N, 118.1253°W)
Time: 07:08:03
(UTC-07:00)
Language:

GPS 2-04 Rocket1 - Orbit

View from above orbital plane
View from above orbital plane
View from above satellite
View from above satellite

Ground track
Ground track

The orbit data is extracted from the following two-line orbital elements,

1 20303U 89085B   17178.85059008 +.00001114 +00000-0 +40836-4 0  9999
2 20303 035.6310 332.9289 0107683 266.2109 092.6299 15.23543760502713
Epoch (UTC): 27 June 2017 20:24:50
Eccentricity: 0.0107683
inclination: 35.6310°
perigee height: 421 km
apogee height: 569 km
right ascension of ascending node: 332.9289°
argument of perigee: 266.2109°
revolutions per day: 15.23543760
mean anomaly at epoch: 92.6299°
orbit number at epoch: 50271

The dashed part of the orbit path shows where the satellite is in the earth's shadow,  

DLR